AAL12 WSSS-KAUS

Flight info

Callsign AAL12
Flight time N/A
Altitude 35000
Route TOMAN3A TOMAN L625 UXEDA/N0482F360 L625 AKMON/K0889F360 L625 ANOKI/N0477F360 L625 MEVIN/N0474F370 B462 KAZIK Y59 AZAMA Y57 AKTAP/N0476F390 Y57 POROT Y809 IDLAN Y812 ADNAP OTR5 KALNA DCT KALIG DCT CUTEE DCT 50N170E/N0473F410 DCT EYETI DCT CURVS DCT CDB DCT 55N150W DCT KATCH DCT YVR DCT EPH J12 DNJ DCT KU78M DCT KU60Q DCT TCC DCT TXO DCT LBB DCT DILLO LAIKS4
Aircraft B772/H-SDE2E3FGHIJ5LORVWXY/LB1D1

Departure

Time N/A
Airport Singapore Changi Airport (WSSS)

Arrival

Time 2026-03-20 08:45
Airport Austin Bergstrom International Airport (KAUS)
Time Latitude Longitude Altitude Speed Heading
2026-03-20 07:54 31.88260 -99.92234 41085 ft 456 kts 135°
2026-03-20 07:54 31.86350 -99.90207 41018 ft 457 kts 135°
2026-03-20 07:55 31.81643 -99.85209 40495 ft 478 kts 135°
2026-03-20 07:55 31.79134 -99.82546 39647 ft 491 kts 135°
2026-03-20 07:55 31.76586 -99.79848 39004 ft 494 kts 135°
2026-03-20 07:56 31.74025 -99.77142 38601 ft 495 kts 135°
2026-03-20 07:56 31.71452 -99.74424 38137 ft 499 kts 135°
2026-03-20 07:56 31.68872 -99.71703 37675 ft 496 kts 135°
2026-03-20 07:56 31.66353 -99.69048 37251 ft 492 kts 135°
2026-03-20 07:57 31.63821 -99.66381 36823 ft 487 kts 135°
2026-03-20 07:57 31.61307 -99.63734 36399 ft 483 kts 135°
2026-03-20 07:57 31.58818 -99.61114 35987 ft 479 kts 135°
2026-03-20 07:57 31.56345 -99.58513 35572 ft 476 kts 135°
2026-03-20 07:58 31.53888 -99.55929 35143 ft 473 kts 135°
2026-03-20 07:58 31.51441 -99.53358 34723 ft 470 kts 135°
2026-03-20 07:58 31.49013 -99.50808 34290 ft 468 kts 135°
2026-03-20 07:58 31.46587 -99.48262 33812 ft 467 kts 135°
2026-03-20 07:59 31.44174 -99.45733 33333 ft 465 kts 135°
2026-03-20 07:59 31.41770 -99.43214 32876 ft 462 kts 135°
2026-03-20 07:59 31.39379 -99.40711 32432 ft 459 kts 135°
2026-03-20 07:59 31.37005 -99.38229 31998 ft 456 kts 135°
2026-03-20 08:00 31.34650 -99.35768 31600 ft 453 kts 135°
2026-03-20 08:00 31.32297 -99.33310 31177 ft 451 kts 135°
2026-03-20 08:00 31.29961 -99.30871 30755 ft 448 kts 135°
2026-03-20 08:00 31.27668 -99.28479 30355 ft 446 kts 135°
2026-03-20 08:01 31.25356 -99.26068 29864 ft 444 kts 135°
2026-03-20 08:01 31.23051 -99.23668 29365 ft 442 kts 135°
2026-03-20 08:01 31.20760 -99.21283 28870 ft 440 kts 135°
2026-03-20 08:01 31.18479 -99.18911 28402 ft 438 kts 135°
2026-03-20 08:02 31.16206 -99.16548 27930 ft 435 kts 135°
2026-03-20 08:02 31.13947 -99.14202 27469 ft 433 kts 135°
2026-03-20 08:02 31.11700 -99.11869 27005 ft 431 kts 135°
2026-03-20 08:02 31.09468 -99.09553 26557 ft 429 kts 135°
2026-03-20 08:03 31.07240 -99.07243 26117 ft 427 kts 135°
2026-03-20 08:03 31.05025 -99.04947 25661 ft 426 kts 135°
2026-03-20 08:03 31.02813 -99.02657 25205 ft 424 kts 135°
2026-03-20 08:03 31.00608 -99.00375 24747 ft 423 kts 135°
2026-03-20 08:04 30.98552 -98.98248 24305 ft 423 kts 135°
2026-03-20 08:04 30.96358 -98.95980 23871 ft 422 kts 135°
2026-03-20 08:04 30.94164 -98.93714 23375 ft 421 kts 135°
2026-03-20 08:04 30.91981 -98.91460 22910 ft 418 kts 135°
2026-03-20 08:05 30.89814 -98.89225 22458 ft 415 kts 135°
2026-03-20 08:05 30.87653 -98.86996 22014 ft 413 kts 135°
2026-03-20 08:05 30.85511 -98.84789 21570 ft 410 kts 134°
2026-03-20 08:05 30.83377 -98.82590 21135 ft 408 kts 134°
2026-03-20 08:06 30.81251 -98.80402 20695 ft 406 kts 134°
2026-03-20 08:06 30.79127 -98.78255 20306 ft 401 kts 138°
2026-03-20 08:06 30.76629 -98.76634 20189 ft 418 kts 158°
2026-03-20 08:06 30.73817 -98.75966 20163 ft 419 kts 176°
2026-03-20 08:07 30.70931 -98.76321 20154 ft 417 kts 196°
2026-03-20 08:07 30.68303 -98.77694 20155 ft 414 kts 216°
2026-03-20 08:07 30.66192 -98.79925 20159 ft 410 kts 235°
2026-03-20 08:07 30.64786 -98.82759 20155 ft 404 kts 253°
2026-03-20 08:08 30.64188 -98.85906 20144 ft 395 kts 272°
2026-03-20 08:08 30.64410 -98.89037 20137 ft 386 kts 289°
2026-03-20 08:08 30.65323 -98.91923 20148 ft 379 kts 302°
2026-03-20 08:08 30.66758 -98.94440 20120 ft 368 kts 318°
2026-03-20 08:09 30.68603 -98.96413 20132 ft 359 kts 323°
2026-03-20 08:09 30.70492 -98.98323 20124 ft 360 kts 323°
2026-03-20 08:09 30.72382 -99.00245 20120 ft 361 kts 323°
2026-03-20 08:09 30.74267 -99.02188 20118 ft 362 kts 322°
2026-03-20 08:10 30.76120 -99.04120 20110 ft 363 kts 322°
2026-03-20 08:10 30.77995 -99.06087 20109 ft 363 kts 322°
2026-03-20 08:10 30.79873 -99.08056 20102 ft 360 kts 323°
2026-03-20 08:10 30.81939 -99.09592 20089 ft 350 kts 341°
2026-03-20 08:11 30.84275 -99.10300 20104 ft 348 kts 355°
2026-03-20 08:11 30.86686 -99.10326 20107 ft 348 kts
2026-03-20 08:11 30.89050 -99.09714 20107 ft 349 kts 19°
2026-03-20 08:11 30.91228 -99.08432 20120 ft 353 kts 33°
2026-03-20 08:12 30.93046 -99.06490 20109 ft 359 kts 47°
2026-03-20 08:12 30.94347 -99.03991 20105 ft 366 kts 63°
2026-03-20 08:12 30.95011 -99.01098 20101 ft 374 kts 78°
2026-03-20 08:12 30.94950 -98.98037 20096 ft 384 kts 95°
2026-03-20 08:13 30.94160 -98.95044 20111 ft 391 kts 109°
2026-03-20 08:13 30.92732 -98.92312 20118 ft 400 kts 127°
2026-03-20 08:13 30.90716 -98.90103 20143 ft 398 kts 135°
2026-03-20 08:13 30.88634 -98.88017 20143 ft 399 kts 135°
2026-03-20 08:14 30.86504 -98.85873 20150 ft 400 kts 134°
2026-03-20 08:14 30.84443 -98.83762 20157 ft 400 kts 134°
2026-03-20 08:14 30.82364 -98.81599 20160 ft 401 kts 134°
2026-03-20 08:14 30.80284 -98.79423 20162 ft 402 kts 134°
2026-03-20 08:15 30.75435 -98.76334 20169 ft 416 kts 172°
2026-03-20 08:15 30.72540 -98.76554 20173 ft 420 kts 196°
2026-03-20 08:15 30.69934 -98.78026 20161 ft 416 kts 220°
2026-03-20 08:16 30.68039 -98.80502 20154 ft 407 kts 244°
2026-03-20 08:16 30.67146 -98.83546 20150 ft 394 kts 269°
2026-03-20 08:16 30.67367 -98.86633 20142 ft 379 kts 293°
2026-03-20 08:16 30.68619 -98.89232 20143 ft 364 kts 317°
2026-03-20 08:17 30.70634 -98.90891 20139 ft 353 kts 342°
2026-03-20 08:17 30.72972 -98.91426 20146 ft 342 kts 357°
2026-03-20 08:17 30.75341 -98.91832 20141 ft 351 kts 345°
2026-03-20 08:17 30.77575 -98.93073 20144 ft 361 kts 330°
2026-03-20 08:18 30.79561 -98.94870 20138 ft 363 kts 323°
2026-03-20 08:18 30.81429 -98.96846 20131 ft 362 kts 321°
2026-03-20 08:18 30.83327 -98.98682 20108 ft 350 kts 334°
2026-03-20 08:18 30.85640 -98.99488 20127 ft 350 kts 359°
2026-03-20 08:19 30.88021 -98.98993 20120 ft 351 kts 23°
2026-03-20 08:19 30.89971 -98.97298 20116 ft 355 kts 47°
2026-03-20 08:19 30.91100 -98.94722 20124 ft 366 kts 72°
2026-03-20 08:19 30.91174 -98.91733 20129 ft 379 kts 96°
2026-03-20 08:20 30.90144 -98.88876 20134 ft 393 kts 121°
2026-03-20 08:20 30.88169 -98.86633 20154 ft 402 kts 140°
2026-03-20 08:20 30.85843 -98.84805 20146 ft 403 kts 141°
2026-03-20 08:20 30.83604 -98.82853 20147 ft 402 kts 136°
2026-03-20 08:21 30.81485 -98.80739 20163 ft 401 kts 134°
2026-03-20 08:21 30.79417 -98.78565 20161 ft 399 kts 134°
2026-03-20 08:21 30.77099 -98.76783 20162 ft 409 kts 155°
2026-03-20 08:21 30.74281 -98.76146 20170 ft 419 kts 180°
2026-03-20 08:22 30.71431 -98.76810 20173 ft 419 kts 204°
2026-03-20 08:22 30.69030 -98.78657 20156 ft 414 kts 229°
2026-03-20 08:22 30.67452 -98.81377 20153 ft 403 kts 252°
2026-03-20 08:22 30.66930 -98.84456 20146 ft 389 kts 276°
2026-03-20 08:23 30.67504 -98.87450 20139 ft 374 kts 301°
2026-03-20 08:23 30.69040 -98.89787 20142 ft 360 kts 325°
2026-03-20 08:23 30.71222 -98.91074 20142 ft 350 kts 349°
2026-03-20 08:23 30.73603 -98.91394 20138 ft 342 kts 356°
2026-03-20 08:24 30.75959 -98.92036 20137 ft 356 kts 340°
2026-03-20 08:24 30.78109 -98.93498 20143 ft 362 kts 327°
2026-03-20 08:24 30.80047 -98.95384 20136 ft 363 kts 322°
2026-03-20 08:24 30.81896 -98.97371 20127 ft 361 kts 321°
2026-03-20 08:25 30.83887 -98.99017 20113 ft 350 kts 341°
2026-03-20 08:25 30.86268 -98.99483 20124 ft 350 kts
2026-03-20 08:25 30.88576 -98.98650 20119 ft 352 kts 30°
2026-03-20 08:25 30.90340 -98.96683 20120 ft 357 kts 54°
2026-03-20 08:26 30.91204 -98.93956 20125 ft 369 kts 78°
2026-03-20 08:26 30.91109 -98.90969 20133 ft 366 kts 92°
2026-03-20 08:26 30.90679 -98.88084 20065 ft 357 kts 96°
2026-03-20 08:26 30.90032 -98.85323 19977 ft 352 kts 104°
2026-03-20 08:27 30.89088 -98.82709 19818 ft 347 kts 108°
2026-03-20 08:27 30.88075 -98.80179 19585 ft 344 kts 109°
2026-03-20 08:27 30.87043 -98.77669 19317 ft 343 kts 109°
2026-03-20 08:27 30.86030 -98.75203 19020 ft 341 kts 109°
2026-03-20 08:28 30.85003 -98.72684 18736 ft 340 kts 109°
2026-03-20 08:28 30.84010 -98.70231 18439 ft 339 kts 109°
2026-03-20 08:28 30.83009 -98.67744 18086 ft 338 kts 109°
2026-03-20 08:28 30.82019 -98.65277 17778 ft 336 kts 109°
2026-03-20 08:29 30.81035 -98.62823 17494 ft 333 kts 109°
2026-03-20 08:29 30.80061 -98.60389 17199 ft 331 kts 109°
2026-03-20 08:29 30.79093 -98.57972 16896 ft 329 kts 109°
2026-03-20 08:29 30.78128 -98.55559 16593 ft 328 kts 109°
2026-03-20 08:30 30.77168 -98.53162 16291 ft 326 kts 109°
2026-03-20 08:30 30.76212 -98.50775 16000 ft 324 kts 109°
2026-03-20 08:30 30.75263 -98.48406 15715 ft 323 kts 109°
2026-03-20 08:30 30.74319 -98.46051 15414 ft 321 kts 109°
2026-03-20 08:31 30.73380 -98.43712 15130 ft 318 kts 109°
2026-03-20 08:31 30.72446 -98.41387 14750 ft 316 kts 109°
2026-03-20 08:31 30.71519 -98.39078 14383 ft 316 kts 110°
2026-03-20 08:31 30.70589 -98.36765 14006 ft 315 kts 110°
2026-03-20 08:32 30.69661 -98.34454 13548 ft 316 kts 110°
2026-03-20 08:32 30.68732 -98.32141 13135 ft 315 kts 111°
2026-03-20 08:32 30.67803 -98.29835 12709 ft 314 kts 111°
2026-03-20 08:32 30.66879 -98.27542 12306 ft 313 kts 111°
2026-03-20 08:33 30.65957 -98.25255 11912 ft 312 kts 111°
2026-03-20 08:33 30.65037 -98.22976 11502 ft 311 kts 112°
2026-03-20 08:33 30.64120 -98.20705 11091 ft 310 kts 112°
2026-03-20 08:33 30.63203 -98.18437 10687 ft 310 kts 112°
2026-03-20 08:34 30.62288 -98.16172 10284 ft 309 kts 112°
2026-03-20 08:34 30.61397 -98.13972 10101 ft 300 kts 113°
2026-03-20 08:34 30.60513 -98.11791 9789 ft 297 kts 113°
2026-03-20 08:34 30.59637 -98.09628 9404 ft 295 kts 113°
2026-03-20 08:35 30.58765 -98.07476 9051 ft 294 kts 113°
2026-03-20 08:35 30.57897 -98.05335 8691 ft 292 kts 113°
2026-03-20 08:35 30.57033 -98.03204 8340 ft 290 kts 115°
2026-03-20 08:35 30.55984 -98.01233 7997 ft 286 kts 126°
2026-03-20 08:36 30.54827 -97.99562 7823 ft 279 kts 129°
2026-03-20 08:36 30.53586 -97.97858 7617 ft 272 kts 130°
2026-03-20 08:36 30.52377 -97.96190 7377 ft 268 kts 130°
2026-03-20 08:36 30.51209 -97.94559 7136 ft 265 kts 129°
2026-03-20 08:37 30.50040 -97.92908 6846 ft 265 kts 129°
2026-03-20 08:37 30.48872 -97.91245 6514 ft 267 kts 129°
2026-03-20 08:37 30.47704 -97.89574 6190 ft 266 kts 130°
2026-03-20 08:37 30.46541 -97.87903 5859 ft 265 kts 130°
2026-03-20 08:38 30.45386 -97.86241 5521 ft 265 kts 130°
2026-03-20 08:38 30.44606 -97.85118 5308 ft 264 kts 130°
2026-03-20 08:38 30.43463 -97.83469 4982 ft 256 kts 130°
2026-03-20 08:38 30.42393 -97.81923 4641 ft 236 kts 131°
2026-03-20 08:39 30.41422 -97.80518 4341 ft 218 kts 132°
2026-03-20 08:39 30.40500 -97.79189 4098 ft 207 kts 132°
2026-03-20 08:39 30.39602 -97.77895 3851 ft 207 kts 133°
2026-03-20 08:39 30.38670 -97.76557 3663 ft 215 kts 133°
2026-03-20 08:40 30.37755 -97.75236 3518 ft 207 kts 134°
2026-03-20 08:40 30.36875 -97.73966 3398 ft 197 kts 134°
2026-03-20 08:40 30.36036 -97.72755 3306 ft 190 kts 134°
2026-03-20 08:40 30.35241 -97.71611 3233 ft 175 kts 134°
2026-03-20 08:41 30.34505 -97.70547 3117 ft 163 kts 135°
2026-03-20 08:41 30.33826 -97.69567 2926 ft 149 kts 137°
2026-03-20 08:41 30.33082 -97.68821 2790 ft 135 kts 169°
2026-03-20 08:41 30.32183 -97.68602 2679 ft 134 kts 176°
2026-03-20 08:42 30.31286 -97.68432 2502 ft 127 kts 181°
2026-03-20 08:42 30.30431 -97.68321 2274 ft 119 kts 180°
2026-03-20 08:42 30.29601 -97.68178 2172 ft 122 kts 180°
2026-03-20 08:42 30.28769 -97.68068 2057 ft 117 kts 186°
2026-03-20 08:43 30.27985 -97.68101 1889 ft 112 kts 187°
2026-03-20 08:43 30.27216 -97.68104 1758 ft 111 kts 185°
2026-03-20 08:43 30.26416 -97.68120 1650 ft 119 kts 185°
2026-03-20 08:43 30.25536 -97.68075 1421 ft 129 kts 180°
2026-03-20 08:44 30.24638 -97.68031 1230 ft 126 kts 180°
2026-03-20 08:44 30.23752 -97.67992 1058 ft 131 kts 181°
2026-03-20 08:44 30.22853 -97.67975 898 ft 130 kts 179°
2026-03-20 08:44 30.21961 -97.67949 720 ft 127 kts 179°
2026-03-20 08:45 30.21083 -97.67929 567 ft 126 kts 180°
2026-03-20 08:45 30.20251 -97.67907 521 ft 109 kts 178°
2026-03-20 08:45 30.19677 -97.67891 509 ft 47 kts 178°
2026-03-20 08:45 30.19467 -97.67845 507 ft 27 kts 158°
2026-03-20 08:46 30.19395 -97.67685 507 ft 20 kts 89°
2026-03-20 08:46 30.19397 -97.67521 509 ft 20 kts 89°